KK4OHF Weather Reports


time (UTC)temp
C
wind
direction
speed
KPH
gust
KPH
rain 1hr
cm
rain 24hr
cm
rain mn
cm
humidity
%
barometer
mb
20260502170505 18 38 6.4 19.3 0.00 0.03 0.03 47 1012.5
20260502164005 18 319 8.0 25.7 0.00 0.03 0.03 48 1012.2
20260502163504 18 0 4.8 14.5 0.00 0.03 0.03 49 1012.2
20260502163006 18 3 6.4 12.9 0.00 0.03 0.03 51 1012.2
20260502162505 17 319 6.4 19.3 0.00 0.03 0.03 50 1012.2
20260502162005 18 353 3.2 9.7 0.00 0.03 0.03 51 1012.2
20260502161505 17 326 3.2 14.5 0.00 0.03 0.03 54 1012.2
20260502161004 17 358 6.4 12.9 0.00 0.03 0.03 55 1012.2
20260502151506 16 306 3.2 11.3 0.00 0.03 0.03 57 1012.2
20260502150505 16 346 4.8 9.7 0.00 0.03 0.03 57 1012.2
20260502130507 12 21 1.6 4.8 0.00 0.03 0.03 68 1012.2
20260502123005 12 327 1.6 4.8 0.00 0.03 0.03 67 1011.5
20260502122505 12 42 0.0 3.2 0.00 0.03 0.03 66 1011.5
20260502122005 12 294 1.6 4.8 0.00 0.03 0.03 67 1011.5
20260502121505 12 314 1.6 4.8 0.00 0.03 0.03 67 1011.5
20260502121007 12 300 1.6 4.8 0.00 0.03 0.03 67 1011.5
20260502120505 12 275 0.0 1.6 0.00 0.03 0.03 67 1011.5
20260502115006 12 256 0.0 4.8 0.00 0.03 0.03 66 1011.5
20260502113506 12 307 1.6 8.0 0.00 0.03 0.03 65 1011.5
20260502113005 12 326 1.6 3.2 0.00 0.03 0.03 65 1011.5
20260502112506 12 47 0.0 3.2 0.00 0.03 0.03 66 1011.5
20260502111505 12 267 1.6 3.2 0.00 0.03 0.03 65 1011.5
20260502111006 12 22 1.6 3.2 0.00 0.03 0.03 65 1011.5
20260502110506 12 284 0.0 3.2 0.00 0.03 0.03 65 1011.5
20260502110005 12 286 1.6 3.2 0.00 0.03 0.03 65 1011.5
20260502105505 12 294 0.0 3.2 0.00 0.03 0.03 66 1011.5
20260502105005 12 293 0.0 3.2 0.00 0.03 0.03 66 1011.5
20260502104505 12 264 1.6 4.8 0.00 0.03 0.03 65 1011.5
20260502104006 12 288 1.6 4.8 0.00 0.03 0.03 65 1011.5
20260502103506 12 282 1.6 3.2 0.00 0.03 0.03 65 1011.5
20260502103005 12 282 1.6 4.8 0.00 0.03 0.03 65 1011.5
20260502102506 12 281 3.2 4.8 0.00 0.03 0.03 65 1011.5
20260502101505 12 283 1.6 4.8 0.00 0.03 0.03 65 1011.3
20260502101005 12 281 1.6 8.0 0.00 0.03 0.03 65 1010.4
20260502100505 12 294 3.2 9.7 0.00 0.03 0.03 66 1010.4
20260502091505 12 353 3.2 4.8 0.00 0.03 0.03 69 1011.0
20260502091005 12 295 1.6 19.3 0.00 0.03 0.03 70 1011.0
20260502090505 12 280 1.6 4.8 0.00 0.03 0.03 71 1011.0
20260502071005 13 17 0.0 4.8 0.00 0.03 0.03 81 1011.6
20260502070505 13 22 1.6 4.8 0.00 0.03 0.03 81 1011.6
20260502070006 13 20 1.6 4.8 0.00 0.03 0.03 81 1011.6
20260502065505 13 13 3.2 4.8 0.00 0.03 0.03 81 1011.6
20260502064504 13 355 3.2 4.8 0.00 0.03 0.03 82 1011.6
20260502064005 13 32 3.2 4.8 0.00 0.03 0.03 82 1012.0
20260502063504 13 343 1.6 4.8 0.00 0.03 0.03 83 1012.0
20260502063006 13 11 1.6 4.8 0.00 0.03 0.03 83 1012.0
20260502062506 13 350 1.6 4.8 0.03 0.03 0.03 83 1012.0
20260502062005 13 32 0.0 4.8 0.03 0.03 0.03 84 1012.0
20260502061504 13 293 1.6 4.8 0.03 0.03 0.03 84 1012.0
20260502061005 13 268 0.0 0.0 0.03 0.03 0.03 84 1012.0
20260502060006 13 268 0.0 0.0 0.03 0.03 0.03 84 1012.0
20260502055506 13 268 0.0 0.0 0.03 0.03 0.03 84 1012.0
20260502055005 13 265 0.0 0.0 0.03 0.03 0.03 84 1012.1
20260502054505 13 300 0.0 0.0 0.03 0.03 0.03 84 1012.1
20260502053505 14 298 0.0 0.0 0.03 0.03 0.03 84 1012.1
20260502053005 14 298 0.0 0.0 0.03 0.03 0.03 84 1012.1
20260502052505 14 224 0.0 0.0 0.03 0.03 0.03 83 1012.1
20260502052005 14 227 0.0 0.0 0.00 0.00 0.00 83 1012.1
20260502051005 14 144 0.0 0.0 0.00 0.00 0.00 83 1012.1
20260502050505 14 144 0.0 0.0 0.00 0.00 0.00 82 1012.1
20260502050004 14 144 0.0 0.0 0.00 0.00 0.00 82 1012.1
20260502045005 14 144 0.0 0.0 0.00 0.00 0.00 82 1012.1
20260502044505 14 144 0.0 0.0 0.00 0.00 0.00 81 1012.1
20260502044005 14 144 0.0 0.0 0.00 0.00 0.00 81 1012.1
20260502043505 14 144 0.0 0.0 0.00 0.00 0.00 82 1012.1
20260502043006 14 144 0.0 0.0 0.00 0.00 0.00 82 1012.1
20260502041505 14 144 0.0 0.0 0.00 0.00 0.00 82 1012.1
20260502041006 14 130 0.0 0.0 0.00 0.00 0.00 82 1012.1
20260502040506 14 130 0.0 0.0 0.00 0.00 0.00 82 1012.1
20260502040006 14 219 0.0 0.0 0.00 0.00 0.00 82 1012.1
20260502035505 14 219 0.0 0.0 0.00 0.00 0.00 82 1012.1
20260502035005 14 219 0.0 0.0 0.00 0.00 0.00 82 1012.1
20260502034506 15 219 0.0 0.0 0.00 0.00 0.00 82 1012.1
20260502034005 15 219 0.0 0.0 0.00 0.00 0.00 82 1012.1
20260502033505 15 219 0.0 0.0 0.00 0.00 0.00 82 1012.1
20260502033005 15 219 0.0 0.0 0.00 0.00 0.00 82 1012.1
20260502032505 15 219 0.0 0.0 0.00 0.00 0.00 82 1012.1
20260502032006 15 219 0.0 0.0 0.00 0.00 0.00 81 1012.1
20260502031506 15 219 0.0 0.0 0.00 0.00 0.00 81 1012.1
20260502031005 15 219 0.0 0.0 0.00 0.00 0.00 81 1012.1
20260502030505 15 219 0.0 0.0 0.00 0.00 0.00 81 1012.1
20260502025505 15 219 0.0 0.0 0.00 0.00 0.00 81 1012.1
20260502025006 15 219 0.0 0.0 0.00 0.00 0.00 80 1012.1
20260502024005 15 219 0.0 0.0 0.00 0.00 0.00 80 1012.1
20260502023506 15 219 0.0 0.0 0.00 0.00 0.00 80 1012.1
20260502022505 15 219 0.0 0.0 0.00 0.00 0.00 80 1012.1
20260502021505 15 219 0.0 0.0 0.00 0.00 0.00 81 1012.1
20260502021005 15 219 0.0 0.0 0.00 0.00 0.00 81 1012.1
20260502020506 15 216 0.0 0.0 0.00 0.00 0.00 80 1012.1
20260502020004 15 216 0.0 0.0 0.00 0.00 0.00 80 1012.1
20260502015505 15 216 0.0 0.0 0.00 0.00 0.00 80 1012.1
20260502014506 15 300 0.0 0.0 0.00 0.00 0.00 80 1012.1
20260502014005 15 300 0.0 0.0 0.00 0.00 0.00 81 1012.1
20260502013506 15 300 0.0 0.0 0.00 0.00 0.00 81 1012.1
20260502013006 15 300 0.0 0.0 0.00 0.00 0.00 81 1012.1
20260502012506 15 300 0.0 0.0 0.00 0.00 0.00 82 1012.1
20260502012005 15 300 0.0 0.0 0.00 0.00 0.00 82 1012.1
20260502011505 15 300 0.0 0.0 0.00 0.00 0.00 81 1012.1
20260502011004 15 300 0.0 0.0 0.00 0.00 0.00 82 1012.1
20260502010506 15 300 0.0 0.0 0.00 0.00 0.00 81 1012.1
20260502010005 15 300 0.0 0.0 0.00 0.00 0.00 80 1012.0
20260502005505 15 300 0.0 0.0 0.00 0.00 0.00 80 1012.0
20260502004005 16 300 0.0 3.2 0.00 0.00 0.00 79 1012.0
20260502003506 16 300 0.0 3.2 0.00 0.00 0.00 79 1012.0
20260502003005 16 300 0.0 1.6 0.00 0.00 0.00 79 1012.0
20260502002506 16 300 0.0 1.6 0.00 0.00 0.00 79 1012.0
20260502002004 16 300 0.0 0.0 0.00 0.00 0.00 78 1012.0
20260502001504 16 300 1.6 4.8 0.00 0.00 0.00 78 1012.0
20260502001005 16 286 0.0 1.6 0.00 0.00 0.00 78 1011.6
20260502000505 16 286 0.0 3.2 0.00 0.00 0.00 77 1011.6
20260502000006 16 284 1.6 4.8 0.00 0.00 0.00 76 1011.6
20260501235506 16 278 1.6 4.8 0.00 0.00 0.00 75 1011.6
20260501235006 16 299 0.0 1.6 0.00 0.00 0.00 75 1011.6
20260501234505 16 299 0.0 1.6 0.00 0.00 0.00 73 1011.6
20260501234006 17 299 0.0 1.6 0.00 0.00 0.00 73 1011.6
20260501233505 17 299 1.6 3.2 0.00 0.00 0.00 73 1011.6
20260501233006 17 288 0.0 1.6 0.00 0.00 0.00 73 1011.5
20260501232504 17 288 0.0 4.8 0.00 0.00 0.00 72 1011.5
20260501232006 17 296 0.0 1.6 0.00 0.00 0.00 73 1011.5
20260501230005 17 298 1.6 4.8 0.00 0.00 0.00 70 1011.6
20260501225504 17 291 1.6 4.8 0.00 0.00 0.00 70 1011.6
20260501225005 17 270 0.0 3.2 0.00 0.00 0.00 70 1011.1
20260501224504 17 263 0.0 1.6 0.00 0.00 0.00 69 1011.1
20260501224006 17 7 0.0 3.2 0.00 0.00 0.00 70 1011.1
20260501223505 17 26 0.0 3.2 0.00 0.00 0.00 69 1011.1
20260501223005 17 26 0.0 3.2 0.00 0.00 0.00 69 1011.1
20260501222505 17 26 0.0 1.6 0.00 0.00 0.00 68 1011.1
20260501221505 17 31 3.2 4.8 0.00 0.00 0.00 68 1013.0
20260501221006 17 313 1.6 3.2 0.00 0.00 0.00 68 1013.0
20260501220504 17 330 0.0 4.8 0.00 0.00 0.00 69 1013.0
20260501220006 18 32 1.6 3.2 0.00 0.00 0.00 69 1013.0
20260501215006 17 27 0.0 4.8 0.00 0.00 0.00 68 1013.0
20260501214505 18 13 3.2 4.8 0.00 0.00 0.00 69 1013.0
20260501214005 18 355 1.6 4.8 0.00 0.00 0.00 68 1013.0
20260501213505 18 3 1.6 4.8 0.00 0.00 0.00 68 1013.0
20260501213006 18 37 3.2 4.8 0.00 0.00 0.00 67 1013.0
20260501212005 18 332 3.2 8.0 0.00 0.00 0.00 64 1013.0
20260501211505 18 19 1.6 3.2 0.00 0.00 0.00 64 1013.0
20260501211005 18 28 0.0 4.8 0.00 0.00 0.00 65 1013.0
20260501210505 18 25 1.6 4.8 0.00 0.00 0.00 64 1013.0
20260501210006 18 309 1.6 4.8 0.00 0.00 0.00 64 1013.0
20260501205505 18 292 3.2 4.8 0.00 0.00 0.00 63 1013.0
20260501204506 18 266 3.2 9.7 0.00 0.00 0.00 64 1013.0
20260501204005 18 281 3.2 8.0 0.00 0.00 0.00 65 1013.0
20260501203505 18 15 3.2 8.0 0.00 0.00 0.00 66 1013.0
20260501202505 18 288 3.2 8.0 0.00 0.00 0.00 66 1013.0
20260501200504 18 304 1.6 4.8 0.00 0.00 0.00 65 1013.0
20260501200005 18 329 1.6 4.8 0.00 0.00 0.00 65 1012.8
20260501195505 18 307 1.6 4.8 0.00 0.00 0.00 64 1012.8
20260501195005 18 344 0.0 4.8 0.00 0.00 0.00 65 1012.8
20260501194505 18 302 0.0 3.2 0.00 0.00 0.00 66 1012.8
20260501193506 18 311 1.6 3.2 0.00 0.00 0.00 64 1012.8
20260501193005 18 311 1.6 4.8 0.00 0.00 0.00 64 1012.8
20260501192504 18 27 0.0 3.2 0.00 0.00 0.00 66 1012.8
20260501192007 18 36 1.6 4.8 0.00 0.00 0.00 66 1012.8
20260501191505 18 298 1.6 3.2 0.00 0.00 0.00 65 1012.8
20260501191006 18 298 1.6 4.8 0.00 0.00 0.00 65 1012.8
20260501190505 18 15 1.6 4.8 0.00 0.00 0.00 65 1012.8
20260501190005 18 34 0.0 4.8 0.00 0.00 0.00 64 1012.8
20260501185504 18 34 3.2 4.8 0.00 0.00 0.00 65 1012.8
20260501185005 18 34 1.6 4.8 0.00 0.00 0.00 66 1013.1
20260501184505 18 49 0.0 4.8 0.00 0.00 0.00 65 1013.1
20260501184005 18 49 1.6 3.2 0.00 0.00 0.00 65 1013.1
20260501183005 18 17 1.6 4.8 0.00 0.00 0.00 64 1013.1
20260501182505 18 305 0.0 3.2 0.00 0.00 0.00 64 1013.1
20260501182005 18 53 0.0 4.8 0.00 0.00 0.00 64 1013.1
20260501181505 18 274 1.6 3.2 0.00 0.00 0.00 65 1013.1
20260501181004 18 20 1.6 4.8 0.00 0.00 0.00 64 1013.1
20260501180505 18 0 0.0 3.2 0.00 0.00 0.00 64 1013.1